Location: Elm Mott Branch
(32.1549°N, 97.5139°W)
Time: 10:17:20
(UTC+00:00)

GOES 2 Rocket - Pass Details

Date: 18 November 2025
Orbit: 569 x 1658 km, 28.4° (Epoch: 07 December)

Event Time Altitude Azimuth Distance (km) Brightness Sun altitude
Exits shadow 12:34:24 - 252° (WSW) 2,623 5.8 -6.3°
Reaches altitude 10° 12:36:19 10° 247° (WSW) 1,861 5.1 -5.9°
Maximum altitude 12:40:19 47° 172° (S) 757 3.8 -5.1°
Drops below altitude 10° 12:44:32 10° 99° (E) 1,952 7.4 -4.3°
Sets 12:47:03 0° 93° (E) 2,951 8.3 -3.8°
